Tracking 19827 objects as of 22-Aug-2019
HD Live streaming from Space Station
objects crossing your sky now

FENGYUN 1C DEB

Track FENGYUN 1C DEB now!
10-day predictions


NORAD ID: 30356
Int'l Code: 1999-025ABT
Perigee: 833.5 km
Apogee: 915.1 km
Inclination: 98.8 °
Period: 102.3 minutes
Semi major axis: 7245 km
RCS: 0.038 m2 (small)
Launch date: May 10, 1999
Source: People's Republic of China (PRC)
Launch site: Taiyaun Space Center, China (TSC)

Note: This is SATELLITE DEBRIS
aabbcc
Your satellite tracking list
Your tracking list is empty




NASA's NSSDC Master Catalog

Two Line Element Set (TLE):
1 30356U 99025ABT 19232.79076583  .00000172  00000-0  12542-3 0  9991
2 30356  98.8054 271.9078 0056319 338.1891  81.8195 14.07719297645468
Source of the keplerian elements: AFSPC